Regional Weather Roundup
Issued by NWS Green Bay, WI

Home | Current Version | Previous Version | Graphics & Text | Print | Product List | Glossary Off
Versions: 1 2 3 4 5 6 7 8 9 10 11 12 13 14 15 16 17 18 19 20 21 22 23 24 25 26 27 28 29 30 31 32 33 34 35 36 37 38 39 40 41 42 43 44 45 46 47 48 49 50

000
ASUS43 KGRB 260311
RWRGRB

NORTH-CENTRAL AND NORTHEAST WISCONSIN REGIONAL WEATHER ROUNDUP
NATIONAL WEATHER SERVICE GREEN BAY WI
1000 PM CDT SAT MAR 25 2017

WIZ005-009-010>012-018-019-260400-
NORTH CENTRAL WISCONSIN

CITY           SKY/WX    TMP DP  RH WIND       PRES   REMARKS
IRONWOOD       CLOUDY    35  29  78 NE6       30.13F
MANITOWISH WTR CLOUDY    34  33  97 E6        30.11F
ARBOR VITAE    MIX PCPN  37  34  90 E7        30.10F
EAGLE RIVER    MIX PCPN  32  29  89 E10       30.12F
LAND O LAKES   CLOUDY    34  31  90 E10       30.14F FOG
RHINELANDER    LGT RAIN  34  32  92 E15       30.11F
PHILLIPS       CLOUDY    34  33  96 E7        30.09F
ANTIGO         MIX PCPN  31  31  99 E17G25    30.11F
TOMAHAWK       CLOUDY    32  31  95 E5        30.12S
MERRILL        MIX PCPN  33  32  99 E8        30.11F
$$

WIZ013-073-260400-
NORTHEAST WISCONSIN

CITY           SKY/WX    TMP DP  RH WIND       PRES   REMARKS
IRON MOUNTAIN  CLOUDY    33  28  81 E6        30.17F
MARINETTE        N/A    N/A N/A N/A MISG        N/A
OCONTO         CLOUDY    33  32  96 NE9       30.15F
$$

WIZ017-030-035>037-045-260400-
CENTRAL WISCONSIN

CITY           SKY/WX    TMP DP  RH WIND       PRES   REMARKS
MEDFORD        CLOUDY    32  31  93 E10G20    30.07F
WAUSAU         LGT RAIN  33  32  96 E10       30.09F
MOSINEE        CLOUDY    32  32 100 E14       30.10F
MARSHFIELD     CLOUDY    33  31  92 E15       30.06F
WISC RAPIDS    CLOUDY    34  33  96 E12       30.09F
STEVENS POINT  CLOUDY    32  32 100 E14       30.09F
WAUPACA        CLOUDY    36  34  92 NE8       30.11F
SHAWANO        DRIZZLE   35  33  91 NE12      30.14F
CLINTONVILLE   RAIN      34  32  93 NE9G18    30.12F
WAUTOMA        MIX PCPN  35  34  96 NE13      30.08F FOG
$$

WIZ038-039-048-051-260400-
FOX VALLEY

CITY           SKY/WX    TMP DP  RH WIND       PRES   REMARKS
NWS GREEN BAY  CLOUDY    35  35 100 NE13      30.13F
APPLETON       CLOUDY    34  34 100 NE14      30.09F FOG
OSHKOSH        CLOUDY    37  35  92 NE12      30.08F
FOND DU LAC    LGT RAIN  38  35  89 NE10      30.07F
$$

WIZ022-050-052-260400-
EAST CENTRAL WISCONSIN

CITY           SKY/WX    TMP DP  RH WIND       PRES   REMARKS
EPHRAIM        LGT RAIN  33  33 100 E12G23    30.16F
WASHINGTON ISL MIX PCPN  32  32  99 E8G16     30.20F
STURGEON BAY   LGT RAIN  35  33  92 NE13G20   30.15F
MANITOWOC      CLOUDY    37  35  92 NE9       30.11F
SHEBOYGAN      LGT RAIN  37  35  92 NE13      30.09F
$$

LMZ563-521-522-541>543-260400-
LAKESHORE

STATION/POSITION TIME  TEMP    WIND        PRES    VSBY  WAVE
                       AIR SEA DIR/SP/G                  HT/PER
                 (UTC) (F)     (DEG/KT/KT) (MB)    (MI)  (FT/S)
SHEBOYGAN LKSHOR 0300   37      40/ 13/ 14 1019.3F
KEWAUNEE LKSHORE 0248   36      60/ 11/ 15 1019.7F
NORTHPORT PIER   0240   33      70/ 18/ 21 1022.7F
SISTER BAY LKSHO 0206   34      90/  8/ 13   N/A
CHAMBERS ISLAND  0240   33      30/ 14/ 19 1021.7F
MENOMINEE LKSHOR 0248   33      30/ 18/ 20 1020.9F
$$



USA.gov is the U.S. government's official web portal to all federal, state and local government web resources and services.